EFIV Weather Reports


Display with metric or nautical units.
time (UTC)temp
F
wind
direction
speed
MPH
gust
MPH
rain 1hr
in
rain 24hr
in
rain mn
in
humidity
%
barometer
mb
20260904014121 50 2 5.0 7.0 0.00 0.00 0.00 95 1002.5
20260904012449 50 359 4.0 7.0 0.00 0.00 0.00 94 1002.4
20260904010451 50 359 6.0 9.0 0.00 0.00 0.00 95 1002.4
20260904004450 50 351 5.0 7.0 0.00 0.00 0.00 96 1002.4
20260904002450 51 358 6.0 9.0 0.00 0.00 0.00 95 1002.4
20260904000450 51 353 6.0 9.0 0.00 0.00 0.00 96 1002.4
20260903234448 51 341 7.0 11.0 0.00 0.00 0.00 96 1002.5
20260903232451 51 347 4.0 8.0 0.00 0.00 0.00 97 1002.5
20260903230448 52 11 3.0 4.0 0.00 0.00 0.00 95 1002.5
20260903224449 52 352 3.0 6.0 0.00 0.00 0.00 94 1002.5
20260903222449 53 344 4.0 7.0 0.00 0.00 0.00 91 1002.5
20260903220450 53 2 6.0 9.0 0.00 0.00 0.00 94 1002.5
20260903214448 53 349 2.0 4.0 0.00 0.00 0.00 94 1002.4
20260903212447 53 31 3.0 4.0 0.00 0.00 0.00 96 1002.4
20260903210450 52 24 4.0 5.0 0.00 0.00 0.00 98 1002.4
20260903204450 52 15 4.0 8.0 0.00 0.00 0.00 98 1002.5
20260903202450 53 34 4.0 5.0 0.00 0.00 0.00 95 1002.5
20260903200119 53 30 4.0 6.0 0.00 0.00 0.00 93 1002.5
20260903194448 53 28 3.0 4.0 0.00 0.00 0.00 94 1002.5
20260903192447 53 354 2.0 3.0 0.00 0.00 0.00 94 1002.6
20260903190448 54 29 3.0 4.0 0.00 0.00 0.00 93 1002.7
20260903184448 54 16 2.0 3.0 0.00 0.00 0.00 92 1002.6
20260903182448 54 359 3.0 4.0 0.00 0.00 0.00 91 1002.6
20260903180448 54 16 4.0 4.0 0.00 0.00 0.00 90 1002.5
20260903174446 55 26 5.0 7.0 0.00 0.00 0.00 87 1002.5
20260903170444 56 13 4.0 7.0 0.00 0.00 0.00 82 1002.2
20260903164446 57 27 5.0 7.0 0.00 0.00 0.00 79 1002.1
20260903162118 58 31 6.0 7.0 0.00 0.00 0.00 77 1002.2
20260903160447 58 28 5.0 8.0 0.00 0.00 0.00 78 1002.3
20260903154446 58 31 6.0 9.0 0.00 0.00 0.00 77 1002.2
20260903152447 58 39 7.0 10.0 0.00 0.00 0.00 77 1002.0
20260903150447 58 26 7.0 10.0 0.00 0.00 0.00 78 1002.0
20260903144446 58 32 9.0 11.0 0.00 0.00 0.00 76 1002.0
20260903142446 58 40 9.0 12.0 0.00 0.00 0.00 77 1002.1
20260903140446 58 36 10.0 12.0 0.00 0.00 0.00 78 1002.0
20260903134117 59 20 7.0 11.0 0.00 0.00 0.00 75 1002.0
20260903132448 60 31 8.0 11.0 0.00 0.00 0.00 75 1001.9
20260903124118 59 54 7.0 11.0 0.00 0.00 0.00 76 1002.0
20260903120447 59 14 6.0 9.0 0.00 0.00 0.00 75 1002.1
20260903114446 58 35 3.0 5.0 0.00 0.00 0.00 77 1002.1
20260903112446 57 4 5.0 8.0 0.00 0.00 0.00 79 1002.2
20260903110117 58 18 4.0 7.0 0.00 0.00 0.00 78 1002.2
20260903104447 57 38 5.0 7.0 0.00 0.00 0.00 83 1002.2
20260903102446 57 60 6.0 9.0 0.00 0.00 0.00 83 1002.1
20260903100446 58 46 4.0 8.0 0.00 0.00 0.00 83 1002.2
20260903094447 56 51 6.0 9.0 0.00 0.00 0.00 86 1002.2
20260903092447 56 70 4.0 5.0 0.00 0.00 0.00 85 1002.2
20260903090444 56 46 3.0 5.0 0.00 0.00 0.00 86 1002.2
20260903084445 55 42 2.0 4.0 0.00 0.00 0.00 88 1002.3
20260903082446 55 68 4.0 5.0 0.00 0.00 0.00 88 1002.2
20260903080447 55 82 4.0 6.0 0.00 0.00 0.00 90 1002.2
20260903074445 54 32 3.0 5.0 0.00 0.00 0.00 91 1002.3
20260903072444 54 36 5.0 7.0 0.00 0.00 0.00 92 1002.3
20260903070445 53 16 3.0 5.0 0.00 0.00 0.00 95 1002.4
20260903064445 52 18 3.0 4.0 0.00 0.00 0.00 95 1002.5
20260903062443 53 34 4.0 6.0 0.00 0.00 0.00 95 1002.4
20260903060444 53 52 5.0 7.0 0.00 0.00 0.00 95 1002.3
20260903054442 53 42 5.0 6.0 0.00 0.00 0.00 95 1002.3
20260903052444 53 40 5.0 7.0 0.00 0.00 0.00 96 1002.2
20260903050444 53 24 4.0 6.0 0.00 0.00 0.00 95 1002.2
20260903044445 53 8 2.0 3.0 0.00 0.00 0.00 96 1002.1
20260903042445 52 312 3.0 4.0 0.00 0.00 0.00 97 1002.2
20260903040444 52 293 2.0 3.0 0.00 0.00 0.00 97 1002.2
20260903034445 52 360 2.0 3.0 0.00 0.00 0.00 99 1002.1
20260903032445 52 354 2.0 3.0 0.00 0.00 0.00 99 1002.2
20260903030444 52 304 2.0 3.0 0.00 0.00 0.00 99 1002.1
20260903024443 52 359 1.0 3.0 0.00 0.00 0.00 100 1002.3
20260903022446 52 24 2.0 3.0 0.00 0.00 0.00 99 1002.2
20260903020446 52 21 3.0 4.0 0.00 0.00 0.00 99 1002.2